Location: River House Observatory
(37.8577°N, 76.3548°W)
Time: 03:43:28
(UTC-05:00)

NOSS 3-1 (C) - Visible Passes

Search period start: 10 February 2016 00:00
Search period end: 20 February 2016 00:00
Orbit: 861 x 1348 km, 63.4° (Epoch: 20 January)

Date Brightness Start Highest point End Pass type
(mag) Time Alt. Az. Time Alt. Az. Time Alt. Az.
10 Feb 6.1 04:23:10 10° SE 04:26:07 14° ESE 04:29:08 10° ENE visible
10 Feb 3.4 06:10:04 10° SW 06:15:55 78° WNW 06:22:25 10° NNE visible
11 Feb 3.8 05:25:00 10° SSW 05:30:45 63° ESE 05:37:03 10° NE visible
12 Feb 4.8 04:40:29 10° S 04:45:44 36° ESE 04:51:24 10° NE visible
12 Feb 4.0 06:30:59 10° WSW 06:36:28 37° NW 06:42:31 10° NNE visible
13 Feb 5.6 03:56:58 11° SSE 04:00:52 20° ESE 04:05:12 10° ENE visible
13 Feb 3.5 05:45:12 10° SW 05:51:00 60° NW 05:57:26 10° NNE visible
14 Feb 3.4 05:02:01 24° SSW 05:05:43 84° ESE 05:12:10 10° NE visible
15 Feb 4.1 04:19:13 41° SSE 04:20:37 49° ESE 04:26:41 10° NE visible
15 Feb 4.3 06:06:41 11° WSW 06:11:43 30° NW 06:17:24 10° NNE visible
16 Feb 5.1 03:36:10 27° ESE 03:36:10 27° ESE 03:40:50 10° NE visible
16 Feb 3.7 05:23:38 30° WSW 05:26:07 46° NW 05:32:23 10° NNE visible
17 Feb 6.0 02:52:58 13° E 02:52:58 13° E 02:54:11 10° ENE visible
17 Feb 3.2 04:40:24 72° W 04:40:44 75° NW 04:47:14 10° NNE visible
18 Feb 4.1 03:57:03 49° ENE 03:57:03 49° ENE 04:01:53 10° NE visible
18 Feb 4.6 05:44:29 19° WNW 05:47:00 24° NW 05:52:14 10° NNE visible
19 Feb 5.4 03:13:35 23° ENE 03:13:35 23° ENE 03:16:15 10° NE visible
19 Feb 4.0 05:01:01 36° NW 05:01:19 36° NW 05:07:18 10° NNE visible
